• In Hungary
  • List of Countries
  • For 7 days
  • Water Temperature
  • Satellite Maps
  • Weather Map
  • News
  • Weather Widgets
  • user-avatar
    Login

    Hourly Weather Loknya

    Today, 22 August, Wednesday

    Time Temperature Precipitation Wind Pressure Humidity
    00:00 +16°C° 0 mm 3 mps 745 mmHg 89%
    01:00 +14°C° 0 mm 3 mps 746 mmHg 89%
    02:00 +14°C° 0 mm 3 mps 746 mmHg 89%
    03:00 +13°C° 0 mm 3 mps 746 mmHg 89%
    04:00 +12°C° 0 mm 3 mps 747 mmHg 88%
    05:00 +12°C° 0 mm 3 mps 747 mmHg 88%
    06:00 +11°C° 0 mm 4 mps 747 mmHg 88%
    07:00 +13°C° 0 mm 4 mps 748 mmHg 82%
    08:00 +14°C° 0 mm 5 mps 748 mmHg 75%
    09:00 +15°C° 0 mm 6 mps 748 mmHg 69%
    10:00 +16°C° 0 mm 6 mps 749 mmHg 64%
    11:00 +17°C° 0 mm 6 mps 749 mmHg 58%
    12:00 +19°C° 0 mm 6 mps 749 mmHg 53%
    13:00 +19°C° 0 mm 6 mps 749 mmHg 52%
    14:00 +20°C° 0 mm 6 mps 749 mmHg 50%
    15:00 +20°C° 0 mm 6 mps 750 mmHg 49%
    16:00 +20°C° 0 mm 6 mps 750 mmHg 52%
    17:00 +19°C° 0 mm 5 mps 750 mmHg 55%
    18:00 +19°C° 0 mm 4 mps 751 mmHg 58%
    19:00 +17°C° 0 mm 4 mps 751 mmHg 61%
    20:00 +15°C° 0 mm 4 mps 752 mmHg 64%
    21:00 +14°C° 0 mm 3 mps 752 mmHg 67%
    22:00 +13°C° 0 mm 3 mps 752 mmHg 69%
    23:00 +12°C° 0 mm 3 mps 753 mmHg 70%

    Tomorrow, 23 August, Thursday

    Time Temperature Precipitation Wind Pressure Humidity
    00:00 +12°C° 0 mm 3 mps 753 mmHg 72%
    01:00 +11°C° 0 mm 3 mps 754 mmHg 73%
    02:00 +11°C° 0 mm 3 mps 754 mmHg 75%
    03:00 +10°C° 0 mm 3 mps 754 mmHg 76%
    04:00 +10°C° 0 mm 3 mps 754 mmHg 77%
    05:00 +10°C° 0 mm 3 mps 755 mmHg 78%
    06:00 +9°C° 0 mm 2 mps 755 mmHg 79%
    07:00 +12°C° 0 mm 2 mps 755 mmHg 73%
    08:00 +14°C° 0 mm 2 mps 756 mmHg 67%
    09:00 +16°C° 0 mm 2 mps 756 mmHg 60%
    10:00 +17°C° 0 mm 3 mps 756 mmHg 55%
    11:00 +18°C° 0 mm 3 mps 756 mmHg 50%
    12:00 +19°C° 0 mm 3 mps 756 mmHg 45%
    13:00 +20°C° 0 mm 3 mps 755 mmHg 44%
    14:00 +20°C° 0 mm 3 mps 755 mmHg 43%
    15:00 +21°C° 0 mm 3 mps 755 mmHg 42%
    16:00 +20°C° 0 mm 3 mps 755 mmHg 46%
    17:00 +20°C° 0 mm 2 mps 755 mmHg 50%
    18:00 +20°C° 0 mm 2 mps 754 mmHg 54%
    19:00 +18°C° 0 mm 2 mps 755 mmHg 58%
    20:00 +16°C° 0 mm 2 mps 755 mmHg 61%
    21:00 +15°C° 0 mm 1 mps 755 mmHg 65%
    22:00 +14°C° 0 mm 1 mps 755 mmHg 66%
    23:00 +14°C° 0 mm 2 mps 755 mmHg 68%

    Day after tomorrow, 24 August, Friday

    Time Temperature Precipitation Wind Pressure Humidity
    00:00 +13°C° 0 mm 2 mps 755 mmHg 69%
    01:00 +13°C° 0 mm 2 mps 755 mmHg 71%
    02:00 +13°C° 0 mm 2 mps 755 mmHg 72%
    03:00 +12°C° 0 mm 2 mps 755 mmHg 74%
    04:00 +12°C° 0 mm 2 mps 755 mmHg 75%
    05:00 +12°C° 0 mm 2 mps 755 mmHg 76%
    06:00 +12°C° 0 mm 2 mps 755 mmHg 78%
    07:00 +14°C° 0 mm 2 mps 755 mmHg 71%
    08:00 +16°C° 0 mm 2 mps 755 mmHg 65%
    09:00 +18°C° 0 mm 2 mps 755 mmHg 59%
    10:00 +19°C° 0 mm 2 mps 755 mmHg 55%
    11:00 +20°C° 0 mm 2 mps 755 mmHg 50%
    12:00 +23°C° 0 mm 2 mps 755 mmHg 46%
    13:00 +23°C° 0 mm 2 mps 754 mmHg 45%
    14:00 +24°C° 0 mm 2 mps 754 mmHg 43%
    15:00 +24°C° 0 mm 2 mps 754 mmHg 42%
    16:00 +24°C° 0 mm 2 mps 754 mmHg 45%
    17:00 +24°C° 0 mm 1 mps 753 mmHg 49%
    18:00 +23°C° 0 mm 1 mps 753 mmHg 53%
    19:00 +21°C° 0 mm 1 mps 753 mmHg 56%
    20:00 +20°C° 0 mm 1 mps 753 mmHg 60%
    21:00 +18°C° 0 mm 1 mps 753 mmHg 63%
    22:00 +16°C° 0 mm 1 mps 753 mmHg 65%
    23:00 +16°C° 0 mm 1 mps 754 mmHg 66%

    25 August, Saturday

    Time Temperature Precipitation Wind Pressure Humidity
    00:00 +15°C° 0 mm 1 mps 754 mmHg 68%
    01:00 +15°C° 0 mm 1 mps 754 mmHg 69%
    02:00 +15°C° 0 mm 1 mps 754 mmHg 70%
    03:00 +14°C° 0 mm 1 mps 754 mmHg 71%
    04:00 +14°C° 0 mm 1 mps 754 mmHg 72%
    05:00 +14°C° 0 mm 1 mps 754 mmHg 72%
    06:00 +14°C° 0 mm 1 mps 754 mmHg 73%
    07:00 +16°C° 0 mm 1 mps 754 mmHg 67%
    08:00 +18°C° 0 mm 2 mps 754 mmHg 61%
    09:00 +20°C° 0 mm 2 mps 754 mmHg 55%
    10:00 +21°C° 0 mm 2 mps 754 mmHg 50%
    11:00 +24°C° 0 mm 3 mps 754 mmHg 46%
    12:00 +25°C° 0 mm 3 mps 753 mmHg 42%
    13:00 +25°C° 0 mm 3 mps 753 mmHg 41%
    14:00 +26°C° 0 mm 3 mps 753 mmHg 40%
    15:00 +26°C° 0 mm 3 mps 753 mmHg 39%
    16:00 +26°C° 0 mm 2 mps 752 mmHg 42%
    17:00 +25°C° 0 mm 2 mps 752 mmHg 46%
    18:00 +24°C° 0 mm 2 mps 752 mmHg 50%
    19:00 +23°C° 0 mm 2 mps 752 mmHg 53%
    20:00 +20°C° 0 mm 2 mps 752 mmHg 55%
    21:00 +18°C° 0 mm 2 mps 752 mmHg 58%
    22:00 +18°C° 0 mm 2 mps 752 mmHg 59%
    23:00 +17°C° 0 mm 2 mps 752 mmHg 60%

    26 August, Sunday

    Time Temperature Precipitation Wind Pressure Humidity
    00:00 +17°C° 0 mm 2 mps 752 mmHg 61%
    01:00 +16°C° 0 mm 2 mps 752 mmHg 62%
    02:00 +16°C° 0 mm 2 mps 752 mmHg 63%
    03:00 +15°C° 0 mm 2 mps 752 mmHg 64%
    04:00 +15°C° 0 mm 2 mps 752 mmHg 66%
    05:00 +15°C° 0 mm 2 mps 752 mmHg 67%
    06:00 +15°C° 0 mm 2 mps 752 mmHg 69%
    07:00 +17°C° 0 mm 2 mps 752 mmHg 64%
    08:00 +19°C° 0 mm 2 mps 752 mmHg 60%
    09:00 +21°C° 0 mm 2 mps 752 mmHg 56%
    10:00 +22°C° 0 mm 3 mps 752 mmHg 51%
    11:00 +25°C° 0 mm 3 mps 752 mmHg 46%
    12:00 +26°C° 0 mm 3 mps 752 mmHg 42%
    13:00 +27°C° 0 mm 3 mps 752 mmHg 40%
    14:00 +27°C° 0 mm 2 mps 751 mmHg 39%
    15:00 +28°C° 0 mm 2 mps 751 mmHg 37%
    16:00 +27°C° 0 mm 2 mps 751 mmHg 41%
    17:00 +26°C° 0 mm 2 mps 751 mmHg 45%
    18:00 +26°C° 0 mm 1 mps 751 mmHg 48%
    19:00 +24°C° 0 mm 1 mps 751 mmHg 51%
    20:00 +22°C° 0 mm 1 mps 751 mmHg 53%
    21:00 +20°C° 0 mm 1 mps 751 mmHg 56%
    22:00 +19°C° 0 mm 2 mps 751 mmHg 57%
    23:00 +18°C° 0 mm 2 mps 751 mmHg 59%

    27 August, Monday

    Time Temperature Precipitation Wind Pressure Humidity
    00:00 +18°C° 0 mm 2 mps 751 mmHg 60%
    01:00 +17°C° 0 mm 2 mps 751 mmHg 63%
    02:00 +17°C° 0 mm 2 mps 751 mmHg 65%
    03:00 +17°C° 0 mm 2 mps 752 mmHg 67%
    04:00 +16°C° 0 mm 2 mps 752 mmHg 70%
    05:00 +16°C° 0 mm 2 mps 752 mmHg 72%
    06:00 +16°C° 0 mm 2 mps 752 mmHg 75%
    07:00 +18°C° 0 mm 2 mps 752 mmHg 70%
    08:00 +20°C° 0 mm 2 mps 752 mmHg 65%
    09:00 +22°C° 0 mm 3 mps 752 mmHg 61%
    10:00 +25°C° 0 mm 3 mps 752 mmHg 56%
    11:00 +26°C° 0 mm 3 mps 752 mmHg 51%
    12:00 +28°C° 0 mm 3 mps 752 mmHg 46%
    13:00 +28°C° 0 mm 3 mps 752 mmHg 44%
    14:00 +28°C° 0 mm 3 mps 752 mmHg 42%
    15:00 +29°C° 0 mm 2 mps 752 mmHg 41%
    16:00 +28°C° 0 mm 2 mps 752 mmHg 44%
    17:00 +28°C° 0 mm 2 mps 752 mmHg 47%
    18:00 +27°C° 0 mm 1 mps 752 mmHg 51%
    19:00 +25°C° 0 mm 1 mps 752 mmHg 54%
    20:00 +23°C° 0 mm 1 mps 752 mmHg 57%
    21:00 +21°C° 0 mm 2 mps 753 mmHg 60%
    22:00 +20°C° 0 mm 2 mps 753 mmHg 63%
    23:00 +20°C° 0 mm 2 mps 753 mmHg 65%
    Show more